Flag for Honduras Weather past 2 weeks in La Ceiba, Honduras

Now
81 °F

Passing clouds.


Feels Like: 84 °F
Forecast: 74 / 87 °F
Wind: No wind

Location: La Ceiba Airport


UV Index: 10 (Very high)

Visibility: N/A


Pressure: 29.92 "Hg

Humidity: 70%

Dew point: 70 °F

Location of La CeibaLocation

Historic Weather in La Ceiba

°F

La Ceiba temperature yesterday

Maximum temperature yesterday: 90 °F (at 3:00 PM)
Minimum temperature yesterday: 70 °F (at 3:00 AM)
Average temperature yesterday: 80 °F

Past Weeks' High & Low Weather Summary

 TemperatureHumidityPressure
High90 °F (Apr 2, 1:00 PM)100% (Apr 5, 1:00 AM)30.21 "Hg (Apr 5, 1:00 AM)
Low63 °F (Apr 10, 6:00 AM)58% (Apr 9, 1:00 PM)29.68 "Hg (Apr 7, 3:00 PM)
Average78 °F82%29.90 "Hg
* Reported Apr 1 8:00 AM — Apr 16 8:00 AM, La Ceiba, Weather by CustomWeather, © 2014

Note: Actual official high and low records may vary slightly from our data, if they occured in-between our weather recording intervals... More about our weather records

Advertising

Historic Weather Conditions — Data for Previous 24 hours

 ConditionsComfort  
Time TempWeatherWind HumidityBarometerVisibility
8:00 AM
Apr 16
81 °FPassing clouds.No wind70%29.92 "HgN/A
7:00 AM73 °FBroken clouds.No wind89%29.92 "HgN/A
6:00 AM72 °FBroken clouds.2 mph94%29.89 "HgN/A
5:00 AM70 °FPassing clouds.No wind94%29.89 "HgN/A
4:00 AM72 °FPassing clouds.No wind94%29.86 "HgN/A
3:00 AM72 °FPartly cloudy.2 mph94%29.86 "HgN/A
2:00 AM70 °FClear.No wind94%29.83 "HgN/A
12:00 AM73 °FClear.No wind89%29.86 "HgN/A
11:00 PM
Apr 15
73 °FClear.2 mph94%29.89 "HgN/A
10:00 PM75 °FPassing clouds.No wind89%29.89 "HgN/A
9:00 PM77 °FPassing clouds.2 mph83%29.89 "HgN/A
8:00 PM79 °FPassing clouds.No wind79%29.86 "Hg4 mi
7:00 PM81 °FPassing clouds.2 mph74%29.83 "Hg4 mi
5:00 PM86 °FPassing clouds.3 mph70%29.80 "Hg4 mi
4:00 PM88 °FPassing clouds.6 mph62%29.77 "Hg4 mi
3:00 PM90 °FPassing clouds.2 mph63%29.77 "Hg4 mi
2:00 PM88 °FPassing clouds.5 mph62%29.80 "Hg4 mi
1:00 PM86 °FPassing clouds.6 mph70%29.83 "Hg4 mi
12:00 PM86 °FPassing clouds.6 mph66%29.83 "Hg4 mi
11:00 AM86 °FPassing clouds.6 mph66%29.86 "Hg4 mi
10:00 AM84 °FPassing clouds.7 mph70%29.86 "Hg4 mi
9:00 AM84 °FScattered clouds.6 mph70%29.86 "Hg4 mi
Weather by CustomWeather, © 2014

See weather overview